Time,TemperatureF,DewpointF,PressureIn,WindDirection,WindDirectionDegrees,WindSpeedMPH,WindSpeedGustMPH,Humidity,HourlyPrecipIn,Conditions,Clouds,dailyrainin,SoftwareType,DateUTC
2013-03-11 00:22:00,63.0,-99.9,29.92,SE,130,26.0,-999.0,-999,-99.99,,,-99.99,,2013-03-11 05:22:00,
2013-03-11 01:33:00,63.0,-99.9,29.87,ESE,120,29.0,-999.0,-999,-99.99,,,-99.99,,2013-03-11 06:33:00,
2013-03-11 01:42:00,63.0,-99.9,29.87,ESE,120,29.0,-999.0,-999,-99.99,,,-99.99,,2013-03-11 06:42:00,
2013-03-11 01:53:00,63.0,-99.9,29.87,ESE,120,29.0,-999.0,-999,-99.99,,,-99.99,,2013-03-11 06:53:00,
2013-03-11 02:03:00,63.0,-99.9,29.87,ESE,120,29.0,-999.0,-999,-99.99,,,-99.99,,2013-03-11 07:03:00,
2013-03-11 02:12:00,63.0,-99.9,29.89,SE,130,24.0,-999.0,-999,-99.99,,,-99.99,,2013-03-11 07:12:00,
2013-03-11 02:22:00,63.0,-99.9,29.89,SE,130,24.0,-999.0,-999,-99.99,,,-99.99,,2013-03-11 07:22:00,
2013-03-11 02:33:00,63.0,-99.9,29.90,SE,130,21.0,-999.0,-999,-99.99,,,-99.99,,2013-03-11 07:33:00,
2013-03-11 02:42:00,63.0,-99.9,29.90,SE,130,21.0,-999.0,-999,-99.99,,,-99.99,,2013-03-11 07:42:00,
2013-03-11 02:52:00,63.0,-99.9,29.90,SE,130,21.0,-999.0,-999,-99.99,,,-99.99,,2013-03-11 07:52:00,
2013-03-11 03:02:00,63.0,-99.9,29.90,SE,130,21.0,-999.0,-999,-99.99,,,-99.99,,2013-03-11 08:02:00,
2013-03-11 03:12:00,63.0,-99.9,29.90,SE,140,18.0,-999.0,-999,-99.99,,,-99.99,,2013-03-11 08:12:00,
2013-03-11 03:22:00,63.0,-99.9,29.90,SE,140,18.0,-999.0,-999,-99.99,,,-99.99,,2013-03-11 08:22:00,
2013-03-11 03:33:00,62.0,-99.9,29.90,SSE,150,16.0,-999.0,-999,-99.99,,,-99.99,,2013-03-11 08:33:00,
2013-03-11 03:42:00,62.0,-99.9,29.90,SSE,150,16.0,-999.0,-999,-99.99,,,-99.99,,2013-03-11 08:42:00,
2013-03-11 03:52:00,62.0,-99.9,29.90,SSE,150,16.0,-999.0,-999,-99.99,,,-99.99,,2013-03-11 08:52:00,
2013-03-11 04:02:00,62.0,-99.9,29.90,SSE,150,16.0,-999.0,-999,-99.99,,,-99.99,,2013-03-11 09:02:00,
2013-03-11 04:12:00,62.0,-99.9,29.90,SSE,150,13.0,-999.0,-999,-99.99,,,-99.99,,2013-03-11 09:12:00,
2013-03-11 04:23:00,62.0,-99.9,29.90,SSE,150,13.0,-999.0,-999,-99.99,,,-99.99,,2013-03-11 09:23:00,
2013-03-11 04:32:00,62.0,-99.9,29.88,SSE,150,9.0,-999.0,-999,-99.99,,,-99.99,,2013-03-11 09:32:00,
2013-03-11 04:42:00,62.0,-99.9,29.88,SSE,150,9.0,-999.0,-999,-99.99,,,-99.99,,2013-03-11 09:42:00,
2013-03-11 04:53:00,62.0,-99.9,29.88,SSE,150,9.0,-999.0,-999,-99.99,,,-99.99,,2013-03-11 09:53:00,
2013-03-11 05:02:00,62.0,-99.9,29.88,SSE,150,9.0,-999.0,-999,-99.99,,,-99.99,,2013-03-11 10:02:00,
2013-03-11 05:12:00,61.0,-99.9,29.86,SE,130,11.0,-999.0,-999,-99.99,,,-99.99,,2013-03-11 10:12:00,
2013-03-11 05:22:00,61.0,-99.9,29.86,SE,130,11.0,-999.0,-999,-99.99,,,-99.99,,2013-03-11 10:22:00,
2013-03-11 05:33:00,61.0,-99.9,29.86,SE,130,13.0,-999.0,-999,-99.99,,,-99.99,,2013-03-11 10:33:00,
2013-03-11 05:42:00,61.0,-99.9,29.86,SE,130,13.0,-999.0,-999,-99.99,,,-99.99,,2013-03-11 10:42:00,
2013-03-11 05:53:00,61.0,-99.9,29.86,SE,130,13.0,-999.0,-999,-99.99,,,-99.99,,2013-03-11 10:53:00,
2013-03-11 06:03:00,61.0,-99.9,29.86,SE,130,13.0,-999.0,-999,-99.99,,,-99.99,,2013-03-11 11:03:00,
2013-03-11 06:13:00,62.0,-99.9,29.85,SE,130,17.0,-999.0,-999,-99.99,,,-99.99,,2013-03-11 11:13:00,
2013-03-11 06:23:00,62.0,-99.9,29.85,SE,130,17.0,-999.0,-999,-99.99,,,-99.99,,2013-03-11 11:23:00,
2013-03-11 06:33:00,62.0,-99.9,29.86,SE,140,14.0,-999.0,-999,-99.99,,,-99.99,,2013-03-11 11:33:00,
2013-03-11 06:43:00,62.0,-99.9,29.86,SE,140,14.0,-999.0,-999,-99.99,,,-99.99,,2013-03-11 11:43:00,
2013-03-11 06:53:00,62.0,-99.9,29.86,SE,140,14.0,-999.0,-999,-99.99,,,-99.99,,2013-03-11 11:53:00,
2013-03-11 07:02:00,62.0,-99.9,29.86,SE,140,14.0,-999.0,-999,-99.99,,,-99.99,,2013-03-11 12:02:00,
2013-03-11 07:12:00,63.0,-99.9,29.85,SE,140,17.0,-999.0,-999,-99.99,,,-99.99,,2013-03-11 12:12:00,
2013-03-11 07:23:00,63.0,-99.9,29.85,SE,140,17.0,-999.0,-999,-99.99,,,-99.99,,2013-03-11 12:23:00,
2013-03-11 07:33:00,63.0,-99.9,29.86,SSE,150,18.0,-999.0,-999,-99.99,,,-99.99,,2013-03-11 12:33:00,
2013-03-11 07:43:00,63.0,-99.9,29.86,SSE,150,18.0,-999.0,-999,-99.99,,,-99.99,,2013-03-11 12:43:00,
2013-03-11 07:53:00,63.0,-99.9,29.86,SSE,150,18.0,-999.0,-999,-99.99,,,-99.99,,2013-03-11 12:53:00,
2013-03-11 08:03:00,63.0,-99.9,29.86,SSE,150,18.0,-999.0,-999,-99.99,,,-99.99,,2013-03-11 13:03:00,
2013-03-11 08:13:00,64.0,-99.9,29.85,SSE,160,21.0,-999.0,-999,-99.99,,,-99.99,,2013-03-11 13:13:00,
2013-03-11 08:23:00,64.0,-99.9,29.85,SSE,160,21.0,-999.0,-999,-99.99,,,-99.99,,2013-03-11 13:23:00,
2013-03-11 08:33:00,63.0,-99.9,29.86,SE,140,20.0,-999.0,-999,-99.99,,,-99.99,,2013-03-11 13:33:00,
2013-03-11 08:43:00,63.0,-99.9,29.86,SE,140,20.0,-999.0,-999,-99.99,,,-99.99,,2013-03-11 13:43:00,
2013-03-11 08:53:00,63.0,-99.9,29.86,SE,140,20.0,-999.0,-999,-99.99,,,-99.99,,2013-03-11 13:53:00,
2013-03-11 09:02:00,63.0,-99.9,29.86,SE,140,20.0,-999.0,-999,-99.99,,,-99.99,,2013-03-11 14:02:00,
2013-03-11 09:13:00,63.0,-99.9,29.85,SE,140,17.0,-999.0,-999,-99.99,,,-99.99,,2013-03-11 14:13:00,
2013-03-11 09:23:00,63.0,-99.9,29.85,SE,140,17.0,-999.0,-999,-99.99,,,-99.99,,2013-03-11 14:23:00,
2013-03-11 09:33:00,63.0,-99.9,29.85,SE,140,16.0,-999.0,-999,-99.99,,,-99.99,,2013-03-11 14:33:00,
2013-03-11 09:43:00,63.0,-99.9,29.85,SE,140,16.0,-999.0,-999,-99.99,,,-99.99,,2013-03-11 14:43:00,
2013-03-11 09:53:00,63.0,-99.9,29.85,SE,140,16.0,-999.0,-999,-99.99,,,-99.99,,2013-03-11 14:53:00,
2013-03-11 10:03:00,63.0,-99.9,29.85,SE,140,16.0,-999.0,-999,-99.99,,,-99.99,,2013-03-11 15:03:00,
2013-03-11 10:13:00,64.0,-99.9,29.84,SE,140,20.0,-999.0,-999,-99.99,,,-99.99,,2013-03-11 15:13:00,
2013-03-11 10:23:00,64.0,-99.9,29.84,SE,140,20.0,-999.0,-999,-99.99,,,-99.99,,2013-03-11 15:23:00,
2013-03-11 10:33:00,64.0,-99.9,29.83,SE,140,20.0,-999.0,-999,-99.99,,,-99.99,,2013-03-11 15:33:00,
2013-03-11 10:43:00,64.0,-99.9,29.83,SE,140,20.0,-999.0,-999,-99.99,,,-99.99,,2013-03-11 15:43:00,
2013-03-11 10:54:00,64.0,-99.9,29.83,SE,140,20.0,-999.0,-999,-99.99,,,-99.99,,2013-03-11 15:54:00,
2013-03-11 11:03:00,64.0,-99.9,29.83,SE,140,20.0,-999.0,-999,-99.99,,,-99.99,,2013-03-11 16:03:00,
2013-03-11 11:13:00,56.0,-99.9,29.87,WNW,300,31.0,-999.0,-999,-99.99,,,-99.99,,2013-03-11 16:13:00,
2013-03-11 11:23:00,56.0,-99.9,29.87,WNW,300,31.0,-999.0,-999,-99.99,,,-99.99,,2013-03-11 16:23:00,
2013-03-11 11:32:00,55.0,-99.9,29.89,NW,310,28.0,-999.0,-999,-99.99,,,-99.99,,2013-03-11 16:32:00,
2013-03-11 11:43:00,55.0,-99.9,29.89,NW,310,28.0,-999.0,-999,-99.99,,,-99.99,,2013-03-11 16:43:00,
2013-03-11 11:53:00,55.0,-99.9,29.89,NW,310,28.0,-999.0,-999,-99.99,,,-99.99,,2013-03-11 16:53:00,
2013-03-11 12:03:00,55.0,-99.9,29.89,NW,310,28.0,-999.0,-999,-99.99,,,-99.99,,2013-03-11 17:03:00,
2013-03-11 12:18:00,54.0,-99.9,29.89,NNW,330,23.0,-999.0,-999,-99.99,,,-99.99,,2013-03-11 17:18:00,
2013-03-11 12:29:00,54.0,-99.9,29.89,NNW,330,23.0,-999.0,-999,-99.99,,,-99.99,,2013-03-11 17:29:00,
2013-03-11 12:39:00,53.0,-99.9,29.90,NW,320,25.0,-999.0,-999,-99.99,,,-99.99,,2013-03-11 17:39:00,
2013-03-11 12:53:00,53.0,-99.9,29.90,NW,320,25.0,-999.0,-999,-99.99,,,-99.99,,2013-03-11 17:53:00,
2013-03-11 13:03:00,53.0,-99.9,29.90,NW,320,25.0,-999.0,-999,-99.99,,,-99.99,,2013-03-11 18:03:00,
2013-03-11 13:12:00,53.0,-99.9,29.90,North,350,20.0,-999.0,-999,-99.99,,,-99.99,,2013-03-11 18:12:00,
2013-03-11 13:23:00,53.0,-99.9,29.90,North,350,20.0,-999.0,-999,-99.99,,,-99.99,,2013-03-11 18:23:00,
2013-03-11 13:33:00,53.0,-99.9,29.90,North,350,20.0,-999.0,-999,-99.99,,,-99.99,,2013-03-11 18:33:00,
2013-03-11 13:43:00,53.0,-99.9,29.90,North,350,20.0,-999.0,-999,-99.99,,,-99.99,,2013-03-11 18:43:00,
2013-03-11 13:53:00,53.0,-99.9,29.90,North,350,20.0,-999.0,-999,-99.99,,,-99.99,,2013-03-11 18:53:00,
2013-03-11 14:00:00,52.0,-99.9,29.90,NNW,340,21.0,-999.0,-999,-99.99,,,-99.99,,2013-03-11 19:00:00,
2013-03-11 14:02:00,53.0,-99.9,29.90,North,350,20.0,-999.0,-999,-99.99,,,-99.99,,2013-03-11 19:02:00,
2013-03-11 14:13:00,52.0,-99.9,29.90,NNW,340,21.0,-999.0,-999,-99.99,,,-99.99,,2013-03-11 19:13:00,
2013-03-11 14:23:00,52.0,-99.9,29.90,NNW,340,21.0,-999.0,-999,-99.99,,,-99.99,,2013-03-11 19:23:00,
2013-03-11 14:30:00,54.0,-99.9,29.85,NNW,340,14.0,-999.0,-999,-99.99,,,-99.99,,2013-03-11 19:30:00,
2013-03-11 14:33:00,52.0,-99.9,29.90,NNW,340,21.0,-999.0,-999,-99.99,,,-99.99,,2013-03-11 19:33:00,
2013-03-11 14:43:00,52.0,-99.9,29.90,NNW,340,21.0,-999.0,-999,-99.99,,,-99.99,,2013-03-11 19:43:00,
2013-03-11 14:53:00,52.0,-99.9,29.90,NNW,340,21.0,-999.0,-999,-99.99,,,-99.99,,2013-03-11 19:53:00,
2013-03-11 15:00:00,55.0,-99.9,29.86,NW,320,14.0,-999.0,-999,-99.99,,,-99.99,,2013-03-11 20:00:00,
2013-03-11 15:12:00,54.0,-99.9,29.85,NNW,340,14.0,-999.0,-999,-99.99,,,-99.99,,2013-03-11 20:12:00,
2013-03-11 15:23:00,54.0,-99.9,29.85,NNW,340,14.0,-999.0,-999,-99.99,,,-99.99,,2013-03-11 20:23:00,
2013-03-11 15:30:00,56.0,-99.9,29.85,NNW,330,14.0,-999.0,-999,-99.99,,,-99.99,,2013-03-11 20:30:00,
2013-03-11 15:44:00,55.0,-99.9,29.86,NW,320,14.0,-999.0,-999,-99.99,,,-99.99,,2013-03-11 20:44:00,
2013-03-11 15:53:00,55.0,-99.9,29.86,NW,320,14.0,-999.0,-999,-99.99,,,-99.99,,2013-03-11 20:53:00,
2013-03-11 16:00:00,56.0,-99.9,29.84,North,350,13.0,-999.0,-999,-99.99,,,-99.99,,2013-03-11 21:00:00,
2013-03-11 16:13:00,56.0,-99.9,29.85,NNW,330,14.0,-999.0,-999,-99.99,,,-99.99,,2013-03-11 21:13:00,
2013-03-11 16:23:00,56.0,-99.9,29.85,NNW,330,14.0,-999.0,-999,-99.99,,,-99.99,,2013-03-11 21:23:00,
2013-03-11 16:30:00,56.0,-99.9,29.84,North,350,13.0,-999.0,-999,-99.99,,,-99.99,,2013-03-11 21:30:00,
2013-03-11 16:44:00,56.0,-99.9,29.84,North,350,13.0,-999.0,-999,-99.99,,,-99.99,,2013-03-11 21:44:00,
2013-03-11 16:54:00,56.0,-99.9,29.84,North,350,13.0,-999.0,-999,-99.99,,,-99.99,,2013-03-11 21:54:00,
2013-03-11 17:00:00,56.0,-99.9,29.84,North,350,13.0,-999.0,-999,-99.99,,,-99.99,,2013-03-11 22:00:00,
2013-03-11 17:13:00,56.0,-99.9,29.84,North,350,13.0,-999.0,-999,-99.99,,,-99.99,,2013-03-11 22:13:00,
2013-03-11 17:23:00,56.0,-99.9,29.84,North,350,13.0,-999.0,-999,-99.99,,,-99.99,,2013-03-11 22:23:00,
2013-03-11 17:30:00,54.0,-99.9,29.85,North,360,20.0,-999.0,-999,-99.99,,,-99.99,,2013-03-11 22:30:00,
2013-03-11 17:44:00,56.0,-99.9,29.84,North,350,13.0,-999.0,-999,-99.99,,,-99.99,,2013-03-11 22:44:00,
2013-03-11 17:53:00,56.0,-99.9,29.84,North,350,13.0,-999.0,-999,-99.99,,,-99.99,,2013-03-11 22:53:00,
2013-03-11 18:00:00,54.0,-99.9,29.86,North,350,21.0,-999.0,-999,-99.99,,,-99.99,,2013-03-11 23:00:00,
2013-03-11 18:22:00,54.0,-99.9,29.85,North,360,20.0,-999.0,-999,-99.99,,,-99.99,,2013-03-11 23:22:00,
2013-03-11 18:30:00,54.0,-99.9,29.86,North,350,22.0,-999.0,-999,-99.99,,,-99.99,,2013-03-11 23:30:00,
2013-03-11 18:54:00,54.0,-99.9,29.86,North,350,21.0,-999.0,-999,-99.99,,,-99.99,,2013-03-11 23:54:00,
2013-03-11 19:00:00,54.0,-99.9,29.88,NNW,340,21.0,-999.0,-999,-99.99,,,-99.99,,2013-03-12 00:00:00,
2013-03-11 19:23:00,54.0,-99.9,29.86,North,350,22.0,-999.0,-999,-99.99,,,-99.99,,2013-03-12 00:23:00,
2013-03-11 19:30:00,53.0,-99.9,29.90,NNW,330,22.0,-999.0,-999,-99.99,,,-99.99,,2013-03-12 00:30:00,
2013-03-11 19:43:00,54.0,-99.9,29.88,NNW,340,21.0,-999.0,-999,-99.99,,,-99.99,,2013-03-12 00:43:00,
2013-03-11 19:54:00,54.0,-99.9,29.88,NNW,340,21.0,-999.0,-999,-99.99,,,-99.99,,2013-03-12 00:54:00,
2013-03-11 20:00:00,52.0,-99.9,29.91,NNW,340,20.0,-999.0,-999,-99.99,,,-99.99,,2013-03-12 01:00:00,
2013-03-11 20:12:00,53.0,-99.9,29.90,NNW,330,22.0,-999.0,-999,-99.99,,,-99.99,,2013-03-12 01:12:00,
2013-03-11 20:22:00,53.0,-99.9,29.90,NNW,330,22.0,-999.0,-999,-99.99,,,-99.99,,2013-03-12 01:22:00,
2013-03-11 20:30:00,52.0,-99.9,29.92,North,350,20.0,-999.0,-999,-99.99,,,-99.99,,2013-03-12 01:30:00,
2013-03-11 20:43:00,52.0,-99.9,29.91,NNW,340,20.0,-999.0,-999,-99.99,,,-99.99,,2013-03-12 01:43:00,
2013-03-11 20:53:00,52.0,-99.9,29.91,NNW,340,20.0,-999.0,-999,-99.99,,,-99.99,,2013-03-12 01:53:00,
2013-03-11 21:00:00,52.0,-99.9,29.93,NNW,340,21.0,-999.0,-999,-99.99,,,-99.99,,2013-03-12 02:00:00,
2013-03-11 21:13:00,52.0,-99.9,29.92,North,350,20.0,-999.0,-999,-99.99,,,-99.99,,2013-03-12 02:13:00,
2013-03-11 21:22:00,52.0,-99.9,29.92,North,350,20.0,-999.0,-999,-99.99,,,-99.99,,2013-03-12 02:22:00,
2013-03-11 21:30:00,52.0,-99.9,29.94,NNW,340,18.0,-999.0,-999,-99.99,,,-99.99,,2013-03-12 02:30:00,
2013-03-11 21:43:00,52.0,-99.9,29.93,NNW,340,21.0,-999.0,-999,-99.99,,,-99.99,,2013-03-12 02:43:00,
2013-03-11 21:52:00,52.0,-99.9,29.93,NNW,340,21.0,-999.0,-999,-99.99,,,-99.99,,2013-03-12 02:52:00,
2013-03-11 22:00:00,52.0,-99.9,29.95,NNW,340,18.0,-999.0,-999,-99.99,,,-99.99,,2013-03-12 03:00:00,
2013-03-11 22:12:00,52.0,-99.9,29.94,NNW,340,18.0,-999.0,-999,-99.99,,,-99.99,,2013-03-12 03:12:00,
2013-03-11 22:22:00,52.0,-99.9,29.94,NNW,340,18.0,-999.0,-999,-99.99,,,-99.99,,2013-03-12 03:22:00,
2013-03-11 22:30:00,52.0,-99.9,29.95,NNW,340,16.0,-999.0,-999,-99.99,,,-99.99,,2013-03-12 03:30:00,
2013-03-11 22:53:00,52.0,-99.9,29.95,NNW,340,18.0,-999.0,-999,-99.99,,,-99.99,,2013-03-12 03:53:00,
2013-03-11 23:00:00,51.0,-99.9,29.97,NNW,340,16.0,-999.0,-999,-99.99,,,-99.99,,2013-03-12 04:00:00,
2013-03-11 23:13:00,52.0,-99.9,29.95,NNW,340,16.0,-999.0,-999,-99.99,,,-99.99,,2013-03-12 04:13:00,
2013-03-11 23:23:00,52.0,-99.9,29.95,NNW,340,16.0,-999.0,-999,-99.99,,,-99.99,,2013-03-12 04:23:00,
2013-03-11 23:30:00,51.0,-99.9,29.96,NNW,340,16.0,-999.0,-999,-99.99,,,-99.99,,2013-03-12 04:30:00,
2013-03-11 23:43:00,51.0,-99.9,29.97,NNW,340,16.0,-999.0,-999,-99.99,,,-99.99,,2013-03-12 04:43:00,
2013-03-11 23:52:00,51.0,-99.9,29.97,NNW,340,16.0,-999.0,-999,-99.99,,,-99.99,,2013-03-12 04:52:00,